Date String (YYYY-MM-DD hh:mm:ss) UTC,Instrument flags,Ambient pressure (hPa),Sample flow (lpm),Bypass flow (lpm),Sample temperature (°C),Ambient temperature (°C),ASC tube jacket temperature (°C),LED temperature (°C),Box temperature (°C),Sample RH (%),Span deviation,Mass concentration (μg/m³),Mass concentration (μg/m³),Mass concentration (μg/m³)
DateTimeUTC,F1_M11,P_M11,Q1_M11,Q2_M11,T1_M11,T2_M11,T3_M11,T4_M11,T5_M11,U1_M11,ZSPAN_M11,X0_M11,X2_M11,X1_M11
2021-10-13 12:00:00,,0813.6,4.99,0.00,22.6,21.7,00.0,31.8,24.3,15.4,0000.0,0002.73,0001.07,0000.45
2021-10-13 12:01:00,,0813.8,5.01,0.00,22.6,21.7,00.0,31.8,24.4,15.5,0000.0,0002.58,0000.97,0000.44
2021-10-13 12:02:00,,0813.6,4.99,0.00,22.6,21.8,00.0,31.8,24.4,15.3,0000.0,0002.55,0000.93,0000.43
2021-10-13 12:03:00,,0814.1,5.00,0.00,22.6,21.8,00.0,31.8,24.4,15.4,0000.0,0002.96,0000.92,0000.43
2021-10-13 12:04:00,,0813.7,5.01,0.00,22.6,21.8,00.0,31.8,24.4,15.5,0000.0,0003.18,0000.93,0000.44
2021-10-13 12:05:00,,0813.5,5.00,0.00,22.6,21.8,00.0,31.8,24.3,15.1,0000.0,0003.08,0000.89,0000.43
2021-10-13 12:06:00,,0813.2,5.00,0.00,22.6,21.8,00.0,31.7,24.4,13.6,0000.0,0003.26,0000.85,0000.42
2021-10-13 12:07:00,,0813.2,5.00,0.00,22.6,21.8,00.0,31.7,24.4,12.9,0000.0,0003.33,0000.82,0000.42
2021-10-13 12:08:00,,0813.4,4.99,0.00,22.6,21.8,00.0,31.7,24.3,12.9,0000.0,0003.65,0000.84,0000.42
2021-10-13 12:09:00,,0813.4,5.00,0.00,22.6,21.8,00.0,31.7,24.4,14.1,0000.0,0004.06,0000.85,0000.43
2021-10-13 12:10:00,,0813.5,5.01,0.00,22.6,21.7,00.0,31.7,24.3,16.8,0000.0,0004.52,0000.92,0000.47
2021-10-13 12:11:00,,0813.5,5.01,0.00,22.5,21.7,00.0,31.7,24.3,17.2,0000.0,0005.16,0001.01,0000.52
2021-10-13 12:12:00,,0813.4,5.00,0.00,22.5,21.6,00.0,31.7,24.2,17.6,0000.0,0005.30,0001.12,0000.57
2021-10-13 12:13:00,,0813.5,5.00,0.00,22.4,21.6,00.0,31.7,24.1,17.4,0000.0,0005.36,0001.20,0000.63
2021-10-13 12:14:00,,0813.3,5.00,0.00,22.4,21.5,00.0,31.7,24.1,16.4,0000.0,0005.09,0001.24,0000.66
2021-10-13 12:15:00,,0813.3,5.00,0.00,22.4,21.5,00.0,31.7,24.1,15.4,0000.0,0005.42,0001.20,0000.66
2021-10-13 12:16:00,,0813.5,5.01,0.00,22.3,21.5,00.0,31.6,24.1,16.9,0000.0,0005.86,0001.23,0000.69
2021-10-13 12:17:00,,0813.3,4.99,0.00,22.3,21.5,00.0,31.6,24.0,17.9,0000.0,0005.74,0001.35,0000.76
2021-10-13 12:18:00,,0813.3,5.00,0.00,22.3,21.4,00.0,31.6,24.0,17.2,0000.0,0005.68,0001.42,0000.81
2021-10-13 12:19:00,,0813.5,5.01,0.00,22.2,21.4,00.0,31.6,23.9,17.6,0000.0,0005.61,0001.49,0000.88
2021-10-13 12:20:00,,0813.5,5.00,0.00,22.2,21.3,00.0,31.6,23.9,17.6,0000.0,0005.58,0001.60,0000.93
2021-10-13 12:21:00,,0813.4,4.99,0.00,22.2,21.3,00.0,31.5,23.8,18.2,0000.0,0005.40,0001.62,0000.94
2021-10-13 12:22:00,,0813.3,5.01,0.00,22.1,21.2,00.0,31.5,23.8,18.0,0000.0,0004.89,0001.63,0000.92
2021-10-13 12:23:00,,0813.3,5.00,0.00,22.1,21.2,00.0,31.5,23.7,16.4,0000.0,0004.85,0001.58,0000.90
2021-10-13 12:24:00,,0813.5,5.00,0.00,22.0,21.1,00.0,31.4,23.7,15.0,0000.0,0004.95,0001.55,0000.86
2021-10-13 12:25:00,,0813.5,4.98,0.00,22.0,21.1,00.0,31.4,23.6,15.6,0000.0,0005.12,0001.54,0000.83
2021-10-13 12:26:00,,0813.6,5.02,0.00,21.9,21.0,00.0,31.4,23.6,17.9,0000.0,0004.55,0001.62,0000.86
2021-10-13 12:27:00,,0813.5,5.00,0.00,21.9,20.9,00.0,31.3,23.5,18.0,0000.0,0004.27,0001.67,0000.87
2021-10-13 12:28:00,,0813.6,5.00,0.00,21.8,20.9,00.0,31.3,23.4,17.8,0000.0,0003.96,0001.61,0000.84
2021-10-13 12:29:00,,0813.5,5.02,0.00,21.8,20.9,00.0,31.2,23.4,17.0,0000.0,0003.89,0001.59,0000.82
2021-10-13 12:30:00,,0813.5,4.99,0.00,21.8,21.0,00.0,31.2,23.4,15.9,0000.0,0003.88,0001.54,0000.79
2021-10-13 12:31:00,,0813.5,5.01,0.00,21.9,21.7,00.0,31.2,23.7,16.3,0000.0,0003.46,0001.47,0000.77
2021-10-13 12:32:00,,0813.5,4.99,0.00,22.1,22.5,00.0,31.3,24.0,15.6,0000.0,0003.31,0001.40,0000.75
2021-10-13 12:33:00,,0813.5,5.00,0.00,22.2,22.7,00.0,31.3,24.2,15.8,0000.0,0003.34,0001.36,0000.73
2021-10-13 12:34:00,,0813.6,5.01,0.00,22.2,22.5,00.0,31.3,24.1,15.0,0000.0,0003.22,0001.32,0000.72
2021-10-13 12:35:00,,0813.7,5.01,0.00,22.1,22.2,00.0,31.3,24.0,15.9,0000.0,0003.01,0001.28,0000.71
2021-10-13 12:36:00,,0813.8,5.00,0.00,22.1,21.9,00.0,31.3,23.9,16.4,0000.0,0002.84,0001.33,0000.73
2021-10-13 12:37:00,,0813.8,5.00,0.00,22.1,21.7,00.0,31.3,23.8,17.2,0000.0,0002.86,0001.37,0000.73
2021-10-13 12:38:00,,0813.5,5.01,0.00,22.0,21.6,00.0,31.3,23.8,16.5,0000.0,0002.91,0001.34,0000.70
2021-10-13 12:39:00,,0813.4,5.00,0.00,22.0,21.5,00.0,31.2,23.7,16.2,0000.0,0003.15,0001.33,0000.68
2021-10-13 12:40:00,,0813.3,5.01,0.00,22.0,21.4,00.0,31.2,23.6,14.9,0000.0,0003.17,0001.32,0000.66
2021-10-13 12:41:00,,0813.3,4.99,0.00,21.9,21.3,00.0,31.2,23.6,14.7,0000.0,0003.76,0001.33,0000.64
2021-10-13 12:42:00,,0813.4,5.01,0.00,21.9,21.3,00.0,31.2,23.6,15.1,0000.0,0005.12,0001.32,0000.61
2021-10-13 12:43:00,,0813.5,5.00,0.00,21.9,21.2,00.0,31.2,23.6,14.8,0000.0,0005.70,0001.34,0000.60
2021-10-13 12:44:00,,0813.4,4.99,0.00,21.9,21.1,00.0,31.2,23.5,15.7,0000.0,0006.64,0001.33,0000.59
2021-10-13 12:45:00,,0813.6,5.00,0.00,21.8,21.1,00.0,31.1,23.5,16.0,0000.0,0008.28,0001.34,0000.59
2021-10-13 12:46:00,,0813.8,5.00,0.00,21.8,21.1,00.0,31.1,23.5,15.6,0000.0,0008.32,0001.36,0000.58
2021-10-13 12:47:00,,0813.5,4.99,0.00,21.8,21.0,00.0,31.1,23.4,16.5,0000.0,0008.35,0001.32,0000.57
2021-10-13 12:48:00,,0813.5,5.00,0.00,21.8,21.0,00.0,31.1,23.4,17.0,0000.0,0008.37,0001.30,0000.58
2021-10-13 12:49:00,,0813.5,4.99,0.00,21.7,21.0,00.0,31.1,23.4,15.6,0000.0,0008.29,0001.26,0000.58
2021-10-13 12:50:00,,0813.8,5.01,0.00,21.7,21.0,00.0,31.0,23.3,15.2,0000.0,0008.30,0001.24,0000.57
2021-10-13 12:51:00,,0813.7,5.00,0.00,21.7,20.9,00.0,31.0,23.3,15.9,0000.0,0008.35,0001.26,0000.57
2021-10-13 12:52:00,,0813.6,4.99,0.00,21.7,20.9,00.0,31.0,23.3,14.9,0000.0,0008.20,0001.24,0000.58
2021-10-13 12:53:00,,0813.7,4.99,0.00,21.7,20.9,00.0,31.0,23.3,15.0,0000.0,0007.29,0001.27,0000.59
2021-10-13 12:54:00,,0813.4,5.00,0.00,21.6,20.8,00.0,31.0,23.3,14.5,0000.0,0006.88,0001.28,0000.59
2021-10-13 12:55:00,,0813.5,5.00,0.00,21.6,20.8,00.0,30.9,23.3,14.6,0000.0,0005.64,0001.21,0000.59
2021-10-13 12:56:00,,0813.5,5.01,0.00,21.6,20.8,00.0,30.9,23.3,14.5,0000.0,0003.40,0001.18,0000.57
2021-10-13 12:57:00,,0813.8,5.00,0.00,21.7,21.4,00.0,30.9,23.4,14.2,0000.0,0003.38,0001.16,0000.56
2021-10-13 12:58:00,,0813.9,4.99,0.00,21.8,22.3,00.0,31.0,23.8,14.6,0000.0,0003.50,0001.16,0000.54
2021-10-13 12:59:00,,0813.9,5.02,0.00,22.0,22.8,00.0,31.0,24.0,14.4,0000.0,0003.31,0001.09,0000.50
